Weather History for KALS - August, 2013

Change the Weather History Date:

Thursday, August 22, 2013

  Actual Average Record
Temperature  
Mean Temperature 68 °F 62 °F  
Max Temperature 84 °F 79 °F 89 °F (1945)
Min Temperature 52 °F 45 °F 32 °F (1964)
Degree Days  
Heating Degree Days 0 3  
Month to date heating degree days 47 47  
Since 1 June heating degree days 177 260  
Since 1 July heating degree days 75 92  
Cooling Degree Days 3 0  
Month to date cooling degree days 19 12  
Year to date cooling degree days 84 50  
Since 1 June cooling degree days 84 50  
Growing Degree Days 17 (Base 50)    
Moisture  
Dew Point 49 °F    
Average Humidity 60    
Maximum Humidity 96    
Minimum Humidity 24    
Precipitation  
Precipitation 0.00 in 0.04 in 0.51 in (2014)
Month to date precipitation 2.22 0.90  
Year to date precipitation 4.63 4.58  
Snow  
Snow 0.00 in 0.00 in 0.00 in (2002)
Month to date snowfall 0.0 0.0  
Since 1 June snowfall 0.0 0.0  
Since 1 July snowfall 0.0 0.0  
Snow Depth 0.00 in    
Sea Level Pressure  
Sea Level Pressure 30.14 in    
Wind  
Wind Speed 6 mph (South)    
Max Wind Speed 25 mph    
Max Gust Speed 30 mph    
Visibility 10 miles    
Events Thunderstorm    
T = Trace of Precipitation, MM = Missing Value Source: NWS Daily Summary

Daily Weather History Graph

Daily Weather History Graph

Search for Another Location

Airport or City:

Trip Planner

Search our weather history database for the weather conditions in past years. The results will help you decide how hot, cold, wet, or windy it might be!

Date:

Astronomy

Aug. 22, 2013 Rise Set
Actual Time 6:25 AM MDT 7:46 PM MDT
Civil Twilight 5:58 AM MDT 8:13 PM MDT
Nautical Twilight 5:25 AM MDT 8:45 PM MDT
Astronomical Twilight 4:51 AM MDT 9:20 PM MDT
Moon 8:35 PM MDT (8/22) 8:13 AM MDT (8/22)
Length of Visible Light 14h 14m
Length of Day
13h 20m
Waning Gibbous, 96% of the Moon is Illuminated
Aug 22
Waning Gibbous
Aug 28
Last Quarter
Sep 5
New
Sep 12
First Quarter
Sep 19
Full

Hourly Weather History & Observations

Time (MDT) Temp. Dew Point Humidity Pressure Visibility Wind Dir Wind Speed Gust Speed Precip Events Conditions
12:52 AM 59.0 °F 54.0 °F 83% 30.11 in 10.0 mi SW 8.1 mph - N/A   Overcast
1:52 AM 57.9 °F 53.1 °F 84% 30.06 in 10.0 mi Calm Calm - N/A   Scattered Clouds
2:52 AM 57.0 °F 54.0 °F 89% 30.05 in 10.0 mi SE 9.2 mph - N/A   Partly Cloudy
3:52 AM 55.9 °F 52.0 °F 87% 30.05 in 10.0 mi Calm Calm - N/A   Clear
4:52 AM 54.0 °F 51.1 °F 90% 30.07 in 10.0 mi Calm Calm - N/A   Clear
5:52 AM 53.1 °F 51.1 °F 93% 30.11 in 10.0 mi Calm Calm - N/A   Clear
6:52 AM 52.0 °F 50.0 °F 93% 30.17 in 10.0 mi Calm Calm - N/A   Clear
7:52 AM 55.9 °F 53.1 °F 90% 30.19 in 10.0 mi Calm Calm - N/A   Clear
8:52 AM 63.0 °F 53.1 °F 70% 30.18 in 10.0 mi NNW 3.5 mph - N/A   Clear
9:52 AM 66.9 °F 53.1 °F 61% 30.16 in 10.0 mi Calm Calm - N/A   Clear
10:52 AM 69.1 °F 52.0 °F 54% 30.14 in 10.0 mi Calm Calm - N/A   Partly Cloudy
11:52 AM - - N/A% 30.39 in - North - - N/A   Unknown
12:52 PM - - N/A% 30.37 in - North - - N/A   Unknown
1:52 PM 79.0 °F 48.0 °F 34% 30.03 in 10.0 mi Variable 5.8 mph - N/A   Unknown
2:52 PM 81.0 °F 46.9 °F 30% 30.00 in 10.0 mi Variable 5.8 mph - N/A   Partly Cloudy
3:52 PM 82.9 °F 42.1 °F 24% 29.97 in 10.0 mi WSW 8.1 mph - N/A   Clear
4:52 PM 82.0 °F 44.1 °F 26% 29.95 in 10.0 mi West 13.8 mph - N/A   Clear
5:14 PM 82.4 °F 44.6 °F 26% 30.26 in 10.0 mi West 11.5 mph - N/A Thunderstorm Clear
5:29 PM 80.6 °F 44.6 °F 28% 30.27 in 10.0 mi West 6.9 mph - N/A   Clear
5:44 PM 75.2 °F 46.4 °F 36% 30.29 in 10.0 mi SSE 21.9 mph 29.9 mph N/A Thunderstorm Mostly Cloudy
5:52 PM 71.1 °F 48.0 °F 44% 30.05 in 10.0 mi SE 16.1 mph 29.9 mph N/A Thunderstorm Mostly Cloudy
6:43 PM 66.2 °F 50.0 °F 56% 30.29 in 10.0 mi East 11.5 mph - N/A Thunderstorm Mostly Cloudy
6:52 PM 66.9 °F 48.9 °F 52% 30.04 in 10.0 mi East 13.8 mph - N/A Thunderstorm Mostly Cloudy
7:16 PM 66.2 °F 48.2 °F 52% 30.29 in 10.0 mi SE 10.4 mph 16.1 mph N/A   Scattered Clouds
7:52 PM 66.9 °F 48.0 °F 51% 30.03 in 10.0 mi SSE 21.9 mph 27.6 mph N/A   Mostly Cloudy
8:52 PM 64.0 °F 46.0 °F 52% 30.04 in 10.0 mi SSE 11.5 mph - N/A   Clear
9:52 PM 63.0 °F 48.9 °F 60% 30.04 in 10.0 mi SW 6.9 mph - N/A   Clear
10:52 PM 61.0 °F 50.0 °F 67% 30.07 in 10.0 mi SE 6.9 mph - N/A   Mostly Cloudy
11:52 PM 60.1 °F 50.0 °F 69% 30.34 in 10.0 mi SE 5.8 mph - N/A   Clear